#timestamp,LO_Frequency,Hit,StdDev 
1565809215.1,286046998.3,N
1565809216.0,286046998.3,N
1565809235.8,286046998.7,N
1565809255.6,286047001.1,N
1565809275.5,286046999.3,N
1565809295.3,286046996.8,N
1565809315.2,286046997.7,N
1565809335.9,286046997.0,N
1565809355.7,286046998.4,N
1565809375.6,286046999.6,N
1565809395.4,286046999.0,N
1565809415.2,286046998.3,N
1565809435.1,286046998.8,N
1565809436.0,286046998.8,N
1565809455.8,286046997.0,N
1565809475.7,286046999.0,N
1565809495.5,286046999.6,N
1565809515.3,286046999.4,N
1565809535.2,286046996.9,N
1565809555.0,286046997.0,N
1565809555.9,286046997.0,N
1565809575.8,286046996.9,N
1565809595.6,286046998.9,N
1565809615.4,286046998.9,N
1565809635.3,286047000.7,N
1565809655.1,286046998.3,N
1565809675.8,286046997.0,N
1565809695.7,286046997.1,N
1565809715.5,286046997.1,N
1565809735.4,286046997.1,N
1565809755.2,286046997.2,N
1565809775.0,286046997.3,N
1565809775.9,286046997.3,N
1565809795.8,286046997.7,N
1565809815.6,286046997.7,N
1565809835.5,286046996.7,Y
1565809855.3,286047000.3,P
1565809875.1,286047000.3,N
1565809895.9,286047002.4,N
1565809915.7,286047000.4,N
1565809935.5,286047001.1,N
1565809955.4,286047000.8,N
1565809975.2,286046998.3,N
1565809995.1,286046998.1,N
1565809996.0,286046998.1,N
1565810015.8,286046998.5,N
1565810035.6,286046998.1,N
1565810055.5,286046998.6,N
1565810075.3,286047000.8,N
1565810095.2,286047000.4,N
1565810115.9,286047000.3,N
1565810135.7,286047002.6,N
1565810155.6,286047002.4,N
1565810175.4,286046999.7,N
1565810195.2,286047002.7,N
1565810215.1,286047000.3,N
1565810216.0,286047000.3,N
1565810235.8,286047002.4,N
1565810255.7,286047002.4,N
1565810275.5,286047002.6,N
1565810295.3,286047002.6,N
1565810315.2,286047001.6,N
1565810335.0,286047000.1,N
1565810335.9,286047000.1,N
1565810355.8,286046999.8,N
1565810375.6,286047000.4,N
1565810395.4,286047002.4,N
1565810415.3,286047000.1,N
1565810435.1,286047000.8,N
1565810455.9,286047000.0,N
1565810475.7,286047002.7,N
1565810495.5,286046999.8,N
1565810515.4,286047002.8,N
1565810535.2,286047000.0,N
1565810555.0,286047002.1,N
1565810555.9,286047002.1,N
1565810575.8,286047002.2,N
1565810595.6,286047002.7,N
1565810615.5,286047002.6,N
1565810635.3,286047001.3,N
1565810655.1,286047002.7,N
1565810675.9,286047004.1,Y
1565810695.7,286047002.6,P
1565810715.6,286047002.1,P
1565810735.4,286047002.1,P
1565810755.2,286047002.6,Y
1565810775.1,286046998.9,P
1565810776.0,286046998.9,N
1565810795.8,286046998.4,N
1565810815.7,286046999.3,N
1565810835.5,286046997.3,N
1565810855.3,286046997.2,N
1565810875.2,286046998.9,N
1565810895.0,286046998.7,N
1565810895.9,286046998.7,N
1565810915.7,286046998.9,N
1565810935.6,286046998.9,N
1565810955.4,286046998.7,N
1565810975.3,286046999.1,N
1565810995.1,286046999.4,N
1565811015.8,286047001.2,N
1565811035.7,286046998.1,N
1565811055.5,286046998.6,N
1565811075.4,286046998.8,N
1565811095.2,286046998.6,N
1565811115.0,286046999.0,N
1565811115.9,286046999.0,N
1565811135.8,286046999.4,N
1565811155.6,286046999.3,N
1565811175.4,286046999.4,N
1565811195.3,286046998.7,N
1565811215.1,286046998.7,N
1565811235.9,286046999.6,N
1565811255.7,286046996.8,Y
1565811275.5,286046998.8,P
1565811295.4,286046998.6,P
1565811315.2,286046998.2,P
1565811335.1,286047001.2,Y
1565811336.0,286047001.2,P
1565811355.8,286047001.6,N
1565811375.6,286047001.6,N
1565811395.5,286047001.4,N
1565811415.3,286047002.1,N
1565811435.1,286047001.5,N
1565811455.9,286047002.2,N
1565811475.7,286047001.5,N
1565811495.6,286047001.8,N
1565811515.4,286047003.8,Y
1565811535.2,286047002.4,P
1565811555.1,286047000.2,N
1565811556.0,286047000.2,N
1565811575.8,286047000.7,N
1565811595.7,286046998.1,N
1565811615.5,286046998.4,N
1565811635.3,286046999.9,N
1565811655.2,286047000.6,N
1565811675.0,286047000.0,N
1565811675.9,286047000.0,N
1565811695.8,286047000.2,N
1565811715.6,286046999.9,N
1565811735.4,286047002.1,N
1565811755.3,286047001.9,N
1565811775.1,286047001.9,N
1565811795.8,286047001.6,N
1565811815.7,286047001.6,N
1565811835.5,286047002.4,N
1565811855.4,286047000.0,N
1565811875.2,286046999.9,N
1565811895.0,286046998.2,N
1565811895.9,286046998.2,N
1565811915.8,286047000.6,N
1565811935.6,286047000.7,N
1565811955.5,286047001.0,N
1565811975.3,286047001.1,N
1565811995.1,286047000.5,N
1565812015.9,286047000.8,N
1565812035.7,286046998.4,N
1565812055.5,286047001.1,N
1565812075.4,286046998.9,N
1565812095.2,286047001.0,N
1565812115.1,286047003.5,N
1565812116.0,286047003.5,N
1565812135.8,286047005.0,Y
1565812155.6,286047003.2,P
1565812175.5,286047004.1,P
1565812195.3,286047011.9,P
1565812215.2,286047001.8,N
1565812235.9,286047001.4,N
1565812255.7,286047002.2,N
1565812275.6,286047001.8,N
1565812295.4,286047002.2,N
1565812315.3,286047002.4,N
1565812335.1,286047002.7,N
1565812336.0,286047002.7,N
1565812355.8,286047002.4,N
1565812375.7,286047000.4,N
1565812395.5,286047000.2,N
1565812415.3,286047001.0,N
1565812435.7,286047000.6,N
1565812455.5,286047000.1,N
1565812475.4,286047002.5,N
1565812495.2,286047001.2,N
1565812515.1,286047001.1,N
1565812516.0,286047001.1,N
1565812535.8,286046999.9,N
1565812555.6,286046999.8,N
1565812605.5,286046998.9,E
1565812615.4,286046998.4,N
1565812635.3,286046999.8,P
1565812655.1,286046999.8,N
1565812675.8,286047002.4,Y
1565812695.7,286047001.1,P
1565812715.5,286046998.5,N
1565812735.4,286046998.6,N
1565812755.2,286047001.0,N
1565812775.0,286047002.0,N
1565812775.9,286047002.0,N
1565812795.8,286047002.7,N
